Location: Équennes
(49.7375°N, 1.9622°E)
Time: 15:33:17
(UTC+00:00)

Cosmos 1844 Rocket - Visible Passes

Search period start: 30 September 2023 00:00
Search period end: 10 October 2023 00:00
Orbit: 825 x 843 km, 71.0° (Epoch: 29 September)

Date Brightness Start Highest point End Pass type
(mag) Time Alt. Az. Time Alt. Az. Time Alt. Az.
30 Sep 5.5 18:39:36 10° WNW 18:43:06 17° W 18:46:36 10° SW visible
01 Oct 5.5 18:22:03 10° WNW 18:25:50 19° W 18:29:35 10° SW visible
02 Oct 5.5 18:04:33 10° NW 18:08:34 21° W 18:12:33 10° SSW visible
09 Oct 4.4 05:30:19 10° S 05:35:26 38° ESE 05:40:33 10° NE visible
